Regional Weather Roundup
Issued by NWS Bismarck, ND

Home | Current Version | Previous Version | Text Only | Print | Product List | Glossary On
Versions: 1 2 3 4 5 6 7 8 9 10 11 12 13 14 15 16 17 18 19 20 21 22 23 24 25 26 27 28 29 30 31 32 33 34 35 36 37 38 39 40 41 42 43 44 45 46 47 48 49 50
000
ASUS43 KBIS 270120
RWRBIS

NWR BROADCAST TEXT
NATIONAL WEATHER SERVICE BISMARCK ND
700 PM CST FRI DEC 26 2014

NOTE: "FAIR" INDICATES FEW OR NO CLOUDS BELOW 12,000 FEET WITH NO
SIGNIFICANT WEATHER AND/OR OBSTRUCTIONS TO VISIBILITY.


CITY           SKY/WX    TMP DP  RH WIND       PRES   REMARKS
WILLISTON      CLOUDY    20  14  77 S5        30.13F WCI  13
MINOT          CLOUDY     7   0  73 CALM      30.17S
MINOT AFB      CLOUDY     6   1  80 CALM      30.17S
BISMARCK       CLEAR      5   2  87 SE3       30.20S
DICKINSON      PTCLDY    13   8  81 E7        30.11R WCI   3
GARRISON         N/A      7   4  87 CALM      30.16S
HETTINGER ARPT CLEAR     12   8  84 CALM      30.12S
JAMESTOWN      PTCLDY     5   2  87 NW5       30.20S WCI  -4
BEACH          CLOUDY    16  14  93 SW5       30.12S WCI   9
CARRINGTON     FAIR       1   1 100 MISG      30.19S
CROSBY         CLOUDY    16  16 100 SW3       30.13F
HARVEY         FAIR       3   1  92 SW5       30.19S WCI  -6
HAZEN          CLOUDY     5   0  78 S7        30.19R WCI  -7
LINTON         FAIR      12   9  85 NE6       30.19R WCI   3
MANDAN         FAIR       9   5  85 CALM      30.18S
OAKES            N/A      9   7  92 NW10      30.22R WCI  -6
RUGBY          FAIR       0  -2  92 NW5       30.19S WCI -10
STANLEY        CLOUDY    14  14 100 SW3       30.11F
TIOGA          CLOUDY    16  16 100 SW6       30.14F WCI   7
WATFORD CITY   CLOUDY    18  14  86 SE8       30.11F WCI   7
$$

CITY           SKY/WX    TMP DP  RH WIND       PRES   REMARKS
GRAND FORKS    CLEAR      5   0  79 NW9       30.25S WCI  -9
GRAND FORKS AF CLEAR      5   1  84 N9        30.25R WCI  -9
DEVILS LAKE    PTCLDY     1  -8  66 W6        30.18F WCI -10
FARGO          MOCLDY    15  10  80 N16       30.22R WCI  -1
CANDO          FAIR       0  -2  92 N3        30.20R
CAVALIER       CLOUDY     7   5  92 NW3       30.26R
GWINNER        CLOUDY    14  10  85 NW16      30.22R WCI  -2
LANGDON        FAIR      -4  -9  77 CALM      30.17S
ROLLA          FAIR      -2  -6  84 CALM      30.16S
WALHALLA         N/A      1  -2  85 W7        30.26R WCI -11
$$

CITY           SKY/WX    TMP DP  RH WIND       PRES   REMARKS
ABERDEEN       CLOUDY    17  12  80 N14       30.22R WCI   3
MOBRIDGE       PTCLDY    13   8  81 E9        30.14F WCI   1
BUFFALO          N/A     18  11  74 W5        30.03F WCI  11
RAPID CITY     CLOUDY    18  13  80 CALM      30.11R
GLASGOW        CLOUDY    25  19  78 W5        30.11S WCI  19
SIDNEY         CLOUDY    21  18  86 CALM      30.14S
WOLF POINT     CLOUDY    20  15  81 CALM      30.14R
GLENDIVE       CLOUDY    23  18  80 S8        30.12S WCI  14
MILES CITY     CLOUDY    24  20  84 W8        30.11R WCI  15
BAKER          MOCLDY    14  10  84 SW7       30.10S WCI   4
$$

CITY           SKY/WX    TMP DP  RH WIND       PRES   REMARKS
BILLINGS       PTCLDY    20  13  74 CALM      30.11R
GREAT FALLS    CLEAR     10   7  87 S10       30.07F WCI  -4
REGINA         SNOWSHWR   7   5  92 SE7       30.10F WCI  -5
ESTEVAN        CLOUDY    10   7  85 S3        30.13S
$$



USA.gov is the U.S. government's official web portal to all federal, state and local government web resources and services.